DLH7AC EDDF-EDDP

Flight info

Callsign DLH7AC
Flight time 0h 33m
Altitude 23000
Route SULUS4D/07C SULUS Z12 LASGA/N0414F220 T953 VOCIM/N0409F210 T954 GOXLI GOXLI1R
Aircraft A320/M-SDE3FGHIRWY/LB1

Departure

Time 2026-05-07 19:30
Airport Frankfurt Main Airport (EDDF)

Arrival

Time 2026-05-07 20:03
Airport Leipzig/Halle Airport (EDDP)
Time Latitude Longitude Altitude Speed Heading
2026-05-07 18:53 50.04635 8.56671 356 ft 0 kts 114°
2026-05-07 19:16 50.04639 8.56658 362 ft 4 kts 114°
2026-05-07 19:17 50.04646 8.56633 359 ft 4 kts 114°
2026-05-07 19:17 50.04657 8.56594 358 ft 4 kts 116°
2026-05-07 19:17 50.04669 8.56561 359 ft 4 kts 137°
2026-05-07 19:17 50.04690 8.56546 359 ft 4 kts 194°
2026-05-07 19:18 50.04697 8.56549 358 ft 0 kts 208°
2026-05-07 19:21 50.04689 8.56527 357 ft 9 kts 246°
2026-05-07 19:21 50.04664 8.56425 359 ft 13 kts 249°
2026-05-07 19:22 50.04630 8.56280 358 ft 14 kts 250°
2026-05-07 19:22 50.04597 8.56141 363 ft 16 kts 250°
2026-05-07 19:22 50.04566 8.56009 358 ft 10 kts 250°
2026-05-07 19:22 50.04503 8.55945 364 ft 11 kts 196°
2026-05-07 19:23 50.04431 8.55911 360 ft 11 kts 194°
2026-05-07 19:23 50.04357 8.55920 363 ft 12 kts 160°
2026-05-07 19:23 50.04279 8.55960 360 ft 11 kts 175°
2026-05-07 19:23 50.04213 8.55916 354 ft 10 kts 195°
2026-05-07 19:24 50.04139 8.55945 354 ft 12 kts 160°
2026-05-07 19:24 50.04064 8.55961 351 ft 11 kts 205°
2026-05-07 19:24 50.04028 8.55863 356 ft 12 kts 250°
2026-05-07 19:24 50.03987 8.55696 352 ft 17 kts 249°
2026-05-07 19:25 50.03949 8.55530 356 ft 15 kts 250°
2026-05-07 19:25 50.03914 8.55388 352 ft 14 kts 249°
2026-05-07 19:25 50.03881 8.55249 354 ft 13 kts 250°
2026-05-07 19:25 50.03851 8.55124 356 ft 12 kts 250°
2026-05-07 19:26 50.03816 8.54975 351 ft 15 kts 250°
2026-05-07 19:26 50.03780 8.54826 350 ft 14 kts 249°
2026-05-07 19:26 50.03747 8.54689 353 ft 13 kts 250°
2026-05-07 19:26 50.03716 8.54557 348 ft 13 kts 249°
2026-05-07 19:27 50.03701 8.54496 349 ft 2 kts 249°
2026-05-07 19:27 50.03681 8.54413 351 ft 9 kts 249°
2026-05-07 19:27 50.03660 8.54331 348 ft 6 kts 244°
2026-05-07 19:27 50.03633 8.54304 349 ft 2 kts 190°
2026-05-07 19:28 50.03628 8.54304 347 ft 1 kts 181°
2026-05-07 19:28 50.03576 8.54329 336 ft 11 kts 159°
2026-05-07 19:28 50.03514 8.54364 349 ft 10 kts 160°
2026-05-07 19:28 50.03491 8.54415 344 ft 4 kts 84°
2026-05-07 19:29 50.03495 8.54434 349 ft 0 kts 71°
2026-05-07 19:29 50.03495 8.54435 349 ft 1 kts 71°
2026-05-07 19:29 50.03550 8.54667 348 ft 58 kts 70°
2026-05-07 19:30 50.03768 8.55580 355 ft 119 kts 69°
2026-05-07 19:30 50.04111 8.57019 404 ft 160 kts 70°
2026-05-07 19:30 50.04483 8.58591 1096 ft 154 kts 70°
2026-05-07 19:30 50.04853 8.60186 1709 ft 161 kts 69°
2026-05-07 19:31 50.05247 8.61908 2077 ft 180 kts 70°
2026-05-07 19:31 50.05676 8.63831 2454 ft 197 kts 70°
2026-05-07 19:31 50.06138 8.65943 2811 ft 217 kts 70°
2026-05-07 19:31 50.06636 8.68216 3489 ft 225 kts 70°
2026-05-07 19:32 50.07113 8.70526 4241 ft 231 kts 77°
2026-05-07 19:32 50.07110 8.73102 4909 ft 245 kts 97°
2026-05-07 19:32 50.06825 8.75791 5358 ft 266 kts 99°
2026-05-07 19:32 50.06476 8.78705 6096 ft 274 kts 100°
2026-05-07 19:33 50.06122 8.81609 6870 ft 279 kts 100°
2026-05-07 19:33 50.05813 8.84616 7683 ft 283 kts 93°
2026-05-07 19:33 50.05814 8.87699 8508 ft 287 kts 88°
2026-05-07 19:33 50.05861 8.90820 9331 ft 291 kts 88°
2026-05-07 19:34 50.05916 8.93988 10138 ft 295 kts 88°
2026-05-07 19:34 50.05985 8.97776 10590 ft 317 kts 88°
2026-05-07 19:34 50.06036 9.00758 10766 ft 336 kts 88°
2026-05-07 19:34 50.06101 9.04532 10925 ft 360 kts 88°
2026-05-07 19:35 50.06168 9.08559 11323 ft 373 kts 88°
2026-05-07 19:35 50.06229 9.12562 11960 ft 378 kts 88°
2026-05-07 19:35 50.06290 9.16673 12648 ft 382 kts 88°
2026-05-07 19:35 50.06350 9.20822 13319 ft 386 kts 89°
2026-05-07 19:36 50.06404 9.25026 13959 ft 390 kts 89°
2026-05-07 19:36 50.06459 9.29267 14536 ft 394 kts 89°
2026-05-07 19:36 50.06517 9.33554 15125 ft 398 kts 89°
2026-05-07 19:36 50.06574 9.37878 15706 ft 401 kts 89°
2026-05-07 19:37 50.06631 9.42235 16264 ft 404 kts 89°
2026-05-07 19:37 50.06685 9.46628 16819 ft 408 kts 89°
2026-05-07 19:37 50.06737 9.51055 17370 ft 411 kts 89°
2026-05-07 19:37 50.06787 9.55516 17915 ft 414 kts 89°
2026-05-07 19:38 50.06834 9.60017 18437 ft 417 kts 89°
2026-05-07 19:38 50.06881 9.64557 18900 ft 420 kts 89°
2026-05-07 19:38 50.06928 9.69118 19384 ft 422 kts 89°
2026-05-07 19:38 50.06974 9.73920 19878 ft 425 kts 89°
2026-05-07 19:39 50.07016 9.78307 20322 ft 427 kts 89°
2026-05-07 19:39 50.07059 9.82942 20778 ft 430 kts 89°
2026-05-07 19:39 50.07098 9.87613 21223 ft 432 kts 89°
2026-05-07 19:39 50.07136 9.92411 21683 ft 435 kts 89°
2026-05-07 19:40 50.07170 9.97026 22111 ft 437 kts 89°
2026-05-07 19:40 50.07207 10.01764 22536 ft 440 kts 89°
2026-05-07 19:40 50.07241 10.06540 22944 ft 442 kts 89°
2026-05-07 19:40 50.07273 10.11337 23081 ft 446 kts 89°
2026-05-07 19:41 50.07300 10.16224 23095 ft 457 kts 89°
2026-05-07 19:41 50.07323 10.21214 23089 ft 464 kts 89°
2026-05-07 19:41 50.07349 10.26252 23090 ft 465 kts 89°
2026-05-07 19:41 50.07378 10.31221 23086 ft 466 kts 89°
2026-05-07 19:42 50.07408 10.36270 23085 ft 466 kts 89°
2026-05-07 19:42 50.07434 10.41331 23087 ft 466 kts 89°
2026-05-07 19:42 50.07494 10.46353 23085 ft 466 kts 85°
2026-05-07 19:42 50.08140 10.51285 23085 ft 465 kts 70°
2026-05-07 19:43 50.09571 10.55780 23087 ft 464 kts 54°
2026-05-07 19:43 50.11709 10.59507 23087 ft 462 kts 39°
2026-05-07 19:43 50.14260 10.62533 23088 ft 461 kts 36°
2026-05-07 19:43 50.16832 10.65522 23096 ft 461 kts 36°
2026-05-07 19:44 50.19398 10.68521 23087 ft 461 kts 36°
2026-05-07 19:44 50.21963 10.71531 23080 ft 461 kts 36°
2026-05-07 19:44 50.24527 10.74547 23077 ft 461 kts 36°
2026-05-07 19:44 50.27087 10.77561 23074 ft 461 kts 36°
2026-05-07 19:45 50.29641 10.80575 23075 ft 461 kts 36°
2026-05-07 19:45 50.32203 10.83608 23073 ft 461 kts 36°
2026-05-07 19:45 50.34754 10.86630 23073 ft 460 kts 36°
2026-05-07 19:45 50.37322 10.89667 22869 ft 464 kts 36°
2026-05-07 19:46 50.39897 10.92707 22441 ft 463 kts 36°
2026-05-07 19:46 50.42462 10.95731 21985 ft 460 kts 36°
2026-05-07 19:46 50.45009 10.98746 21531 ft 457 kts 36°
2026-05-07 19:46 50.47530 11.01746 21092 ft 454 kts 36°
2026-05-07 19:47 50.50040 11.04736 20654 ft 451 kts 36°
2026-05-07 19:47 50.52529 11.07701 20226 ft 448 kts 36°
2026-05-07 19:47 50.55010 11.10660 19805 ft 446 kts 36°
2026-05-07 19:47 50.57470 11.13604 19388 ft 443 kts 36°
2026-05-07 19:48 50.59918 11.16537 19108 ft 441 kts 36°
2026-05-07 19:48 50.62363 11.19442 19068 ft 440 kts 34°
2026-05-07 19:48 50.64990 11.21913 19088 ft 439 kts 25°
2026-05-07 19:48 50.67762 11.23942 19082 ft 439 kts 23°
2026-05-07 19:49 50.70542 11.25950 19084 ft 439 kts 23°
2026-05-07 19:49 50.73321 11.27959 19090 ft 440 kts 23°
2026-05-07 19:49 50.76101 11.29974 19095 ft 440 kts 23°
2026-05-07 19:49 50.78879 11.31993 19098 ft 438 kts 24°
2026-05-07 19:50 50.81636 11.34011 19085 ft 437 kts 24°
2026-05-07 19:50 50.84393 11.36034 19086 ft 436 kts 24°
2026-05-07 19:50 50.87148 11.38059 19081 ft 436 kts 24°
2026-05-07 19:50 50.89894 11.40082 18702 ft 434 kts 24°
2026-05-07 19:51 50.92623 11.42097 18223 ft 431 kts 24°
2026-05-07 19:51 50.95335 11.44098 17671 ft 428 kts 24°
2026-05-07 19:51 50.98028 11.46080 17141 ft 425 kts 24°
2026-05-07 19:51 51.00696 11.48046 16618 ft 421 kts 24°
2026-05-07 19:52 51.03338 11.50001 16104 ft 417 kts 24°
2026-05-07 19:52 51.05905 11.52118 15598 ft 415 kts 32°
2026-05-07 19:52 51.08131 11.55011 15087 ft 413 kts 45°
2026-05-07 19:52 51.09894 11.58596 14612 ft 410 kts 57°
2026-05-07 19:53 51.11092 11.62666 14127 ft 403 kts 69°
2026-05-07 19:53 51.11997 11.66767 13616 ft 383 kts 70°
2026-05-07 19:53 51.12839 11.70664 13084 ft 364 kts 70°
2026-05-07 19:53 51.13638 11.74388 12564 ft 347 kts 70°
2026-05-07 19:54 51.14397 11.77954 12050 ft 333 kts 70°
2026-05-07 19:54 51.15125 11.81391 11541 ft 322 kts 70°
2026-05-07 19:54 51.15817 11.84673 11048 ft 312 kts 70°
2026-05-07 19:54 51.16494 11.87902 10556 ft 303 kts 70°
2026-05-07 19:55 51.17150 11.91050 10074 ft 297 kts 70°
2026-05-07 19:55 51.17797 11.94158 9548 ft 293 kts 70°
2026-05-07 19:55 51.18456 11.97241 9019 ft 287 kts 65°
2026-05-07 19:55 51.19561 11.99789 8504 ft 278 kts 39°
2026-05-07 19:56 51.21220 12.01191 7983 ft 267 kts 11°
2026-05-07 19:56 51.23029 12.01159 7467 ft 259 kts 343°
2026-05-07 19:56 51.24535 11.99731 7119 ft 251 kts 312°
2026-05-07 19:56 51.25358 11.97359 6953 ft 243 kts 289°
2026-05-07 19:57 51.25817 11.94779 6633 ft 241 kts 288°
2026-05-07 19:57 51.26611 11.92502 6144 ft 234 kts 318°
2026-05-07 19:57 51.27937 11.91047 5576 ft 232 kts 333°
2026-05-07 19:57 51.29401 11.90019 5028 ft 229 kts 348°
2026-05-07 19:58 51.30947 11.89609 4484 ft 228 kts 354°
2026-05-07 19:58 51.32523 11.89314 3957 ft 227 kts 354°
2026-05-07 19:58 51.34090 11.89041 3494 ft 227 kts 356°
2026-05-07 19:58 51.35608 11.89361 3299 ft 217 kts 27°
2026-05-07 19:59 51.36730 11.90867 3175 ft 208 kts 51°
2026-05-07 19:59 51.37519 11.92777 3067 ft 204 kts 56°
2026-05-07 19:59 51.38318 11.94638 2917 ft 201 kts 55°
2026-05-07 19:59 51.39117 11.96465 2682 ft 200 kts 54°
2026-05-07 20:00 51.39879 11.98318 2509 ft 196 kts 64°
2026-05-07 20:00 51.40191 12.00360 2420 ft 184 kts 85°
2026-05-07 20:00 51.40285 12.02339 2354 ft 174 kts 84°
2026-05-07 20:00 51.40379 12.04248 2288 ft 170 kts 84°
2026-05-07 20:01 51.40471 12.06132 2207 ft 170 kts 84°
2026-05-07 20:01 51.40563 12.08029 2008 ft 171 kts 84°
2026-05-07 20:01 51.40655 12.09920 1782 ft 170 kts 84°
2026-05-07 20:01 51.40746 12.11813 1548 ft 170 kts 84°
2026-05-07 20:02 51.40836 12.13700 1318 ft 169 kts 84°
2026-05-07 20:02 51.40927 12.15578 1102 ft 169 kts 84°
2026-05-07 20:02 51.41018 12.17458 841 ft 169 kts 84°
2026-05-07 20:02 51.41078 12.18700 718 ft 169 kts 84°
2026-05-07 20:03 51.41193 12.21169 472 ft 167 kts 84°
2026-05-07 20:03 51.41245 12.22337 460 ft 141 kts 84°
2026-05-07 20:03 51.41309 12.23625 472 ft 85 kts 85°
2026-05-07 20:03 51.41338 12.24226 476 ft 35 kts 86°
2026-05-07 20:04 51.41357 12.24468 471 ft 13 kts 52°
2026-05-07 20:04 51.41438 12.24512 479 ft 13 kts 14°
2026-05-07 20:04 51.41519 12.24543 479 ft 10 kts 13°
2026-05-07 20:04 51.41552 12.24555 479 ft 0 kts 13°
2026-05-07 20:05 51.41562 12.24559 479 ft 6 kts 14°
2026-05-07 20:05 51.41629 12.24571 476 ft 10 kts 343°
2026-05-07 20:05 51.41653 12.24466 478 ft 13 kts 266°
2026-05-07 20:05 51.41645 12.24292 479 ft 17 kts 265°
2026-05-07 20:06 51.41637 12.24097 476 ft 19 kts 266°
2026-05-07 20:06 51.41626 12.23874 473 ft 20 kts 266°
2026-05-07 20:06 51.41615 12.23648 470 ft 21 kts 265°
2026-05-07 20:06 51.41604 12.23403 466 ft 20 kts 266°
2026-05-07 20:07 51.41606 12.23198 464 ft 20 kts 284°
2026-05-07 20:07 51.41645 12.22974 458 ft 23 kts 285°
2026-05-07 20:07 51.41686 12.22731 449 ft 22 kts 286°
2026-05-07 20:07 51.41729 12.22484 435 ft 25 kts 285°
2026-05-07 20:08 51.41771 12.22237 428 ft 19 kts 285°
2026-05-07 20:08 51.41806 12.22029 436 ft 19 kts 285°
2026-05-07 20:08 51.41839 12.21836 429 ft 16 kts 284°
2026-05-07 20:08 51.41863 12.21698 430 ft 11 kts 285°
2026-05-07 20:09 51.41886 12.21564 433 ft 14 kts 285°
2026-05-07 20:09 51.41913 12.21406 425 ft 15 kts 285°
2026-05-07 20:09 51.41932 12.21295 431 ft 7 kts 285°
2026-05-07 20:10 51.42002 12.21293 427 ft 3 kts 15°
2026-05-07 20:10 51.42015 12.21299 424 ft 0 kts 15°